Time,TemperatureF,DewpointF,PressureIn,WindDirection,WindDirectionDegrees,WindSpeedMPH,WindSpeedGustMPH,Humidity,HourlyPrecipIn,Conditions,Clouds,dailyrainin,SolarRadiationWatts/m^2,SoftwareType,DateUTC
2015-07-06 00:00:00,71.3,47.6,29.80,West,272,0.0,1.0,43,0.00,,,0.00,0,Wunderground v.1.15,2015-07-06 07:00:00,
2015-07-06 00:10:00,70.9,50.8,29.81,West,270,0.0,0.0,49,0.00,,,0.00,0,Wunderground v.1.15,2015-07-06 07:10:00,
2015-07-06 00:20:00,70.3,55.8,29.81,SSW,206,0.0,0.0,60,0.00,,,0.00,0,Wunderground v.1.15,2015-07-06 07:20:00,
2015-07-06 00:30:00,69.6,55.6,29.81,SSW,193,0.0,0.0,61,0.00,,,0.00,0,Wunderground v.1.15,2015-07-06 07:30:00,
2015-07-06 00:40:00,68.9,55.8,29.81,SSW,195,0.0,1.0,63,0.00,,,0.00,0,Wunderground v.1.15,2015-07-06 07:40:00,
2015-07-06 00:50:00,68.1,55.0,29.82,SSW,193,0.0,0.0,63,0.00,,,0.00,0,Wunderground v.1.15,2015-07-06 07:50:00,
2015-07-06 01:00:00,67.6,55.4,29.82,SSW,213,0.0,2.0,65,0.00,,,0.00,0,Wunderground v.1.15,2015-07-06 08:00:00,
2015-07-06 01:10:00,67.1,55.8,29.83,SSW,213,0.0,0.0,67,0.00,,,0.00,0,Wunderground v.1.15,2015-07-06 08:10:00,
2015-07-06 01:20:00,66.8,55.9,29.83,SSE,160,0.0,2.0,68,0.00,,,0.00,0,Wunderground v.1.15,2015-07-06 08:20:00,
2015-07-06 01:30:00,66.4,55.5,29.83,SSE,160,1.0,1.0,68,0.00,,,0.00,0,Wunderground v.1.15,2015-07-06 08:30:00,
2015-07-06 01:40:00,66.3,55.8,29.84,SSE,160,0.0,0.0,69,0.00,,,0.00,0,Wunderground v.1.15,2015-07-06 08:40:00,
2015-07-06 01:50:00,66.3,55.8,29.84,SSE,164,0.0,1.0,69,0.00,,,0.00,0,Wunderground v.1.15,2015-07-06 08:50:00,
2015-07-06 02:00:00,66.3,55.8,29.84,South,172,1.0,1.0,69,0.00,,,0.00,0,Wunderground v.1.15,2015-07-06 09:00:00,
2015-07-06 02:10:00,66.1,55.6,29.85,South,185,0.0,6.0,69,0.00,,,0.00,0,Wunderground v.1.15,2015-07-06 09:10:00,
2015-07-06 02:20:00,66.3,55.8,29.85,SSW,192,1.0,1.0,69,0.00,,,0.00,0,Wunderground v.1.15,2015-07-06 09:20:00,
2015-07-06 02:30:00,66.1,55.2,29.85,SSE,162,1.0,1.0,68,0.00,,,0.00,0,Wunderground v.1.15,2015-07-06 09:30:00,
2015-07-06 02:40:00,66.0,55.1,29.85,SE,143,1.0,1.0,68,0.00,,,0.00,0,Wunderground v.1.15,2015-07-06 09:40:00,
2015-07-06 02:50:00,65.8,55.3,29.85,SE,137,0.0,0.0,69,0.00,,,0.00,0,Wunderground v.1.15,2015-07-06 09:50:00,
2015-07-06 03:00:00,65.5,55.1,29.85,SE,127,1.0,1.0,69,0.00,,,0.00,0,Wunderground v.1.15,2015-07-06 10:00:00,
2015-07-06 03:10:00,65.2,54.8,29.86,South,188,1.0,1.0,69,0.00,,,0.00,0,Wunderground v.1.15,2015-07-06 10:10:00,
2015-07-06 03:20:00,65.0,54.6,29.86,SE,144,1.0,2.0,69,0.00,,,0.00,0,Wunderground v.1.15,2015-07-06 10:20:00,
2015-07-06 03:30:00,65.0,54.6,29.86,SE,144,0.0,0.0,69,0.00,,,0.00,0,Wunderground v.1.15,2015-07-06 10:30:00,
2015-07-06 03:40:00,64.8,54.4,29.86,South,176,1.0,1.0,69,0.00,,,0.00,0,Wunderground v.1.15,2015-07-06 10:40:00,
2015-07-06 03:50:00,64.5,54.1,29.86,SSE,162,1.0,2.0,69,0.00,,,0.00,0,Wunderground v.1.15,2015-07-06 10:50:00,
2015-07-06 04:00:00,64.3,53.9,29.86,SE,137,1.0,2.0,69,0.00,,,0.00,0,Wunderground v.1.15,2015-07-06 11:00:00,
2015-07-06 04:10:00,64.2,53.8,29.87,SSE,168,1.0,1.0,69,0.00,,,0.00,0,Wunderground v.1.15,2015-07-06 11:10:00,
2015-07-06 04:20:00,63.9,53.5,29.87,South,175,2.0,2.0,69,0.00,,,0.00,0,Wunderground v.1.15,2015-07-06 11:20:00,
2015-07-06 04:30:00,63.5,53.5,29.87,SSW,198,1.0,3.0,70,0.00,,,0.00,0,Wunderground v.1.15,2015-07-06 11:30:00,
2015-07-06 04:40:00,63.1,53.5,29.88,South,178,2.0,2.0,71,0.00,,,0.00,0,Wunderground v.1.15,2015-07-06 11:40:00,
2015-07-06 04:50:00,62.9,53.7,29.88,SSE,161,0.0,0.0,72,0.00,,,0.00,0,Wunderground v.1.15,2015-07-06 11:50:00,
2015-07-06 05:00:00,62.6,53.8,29.88,South,188,1.0,1.0,73,0.00,,,0.00,0,Wunderground v.1.15,2015-07-06 12:00:00,
2015-07-06 05:10:00,62.3,53.9,29.88,South,182,1.0,2.0,74,0.00,,,0.00,0,Wunderground v.1.15,2015-07-06 12:10:00,
2015-07-06 05:20:00,62.1,53.7,29.89,SSW,196,1.0,4.0,74,0.00,,,0.00,5,Wunderground v.1.15,2015-07-06 12:20:00,
2015-07-06 05:30:00,62.0,54.0,29.89,SSE,151,1.0,1.0,75,0.00,,,0.00,5,Wunderground v.1.15,2015-07-06 12:30:00,
2015-07-06 05:40:00,61.5,54.2,29.89,SSW,193,1.0,5.0,77,0.00,,,0.00,9,Wunderground v.1.15,2015-07-06 12:40:00,
2015-07-06 05:50:00,61.2,54.3,29.89,SSE,168,2.0,2.0,78,0.00,,,0.00,12,Wunderground v.1.15,2015-07-06 12:50:00,
2015-07-06 06:00:00,61.0,54.4,29.89,South,178,1.0,1.0,79,0.00,,,0.00,18,Wunderground v.1.15,2015-07-06 13:00:00,
2015-07-06 06:10:00,60.9,54.3,29.90,South,184,1.0,1.0,79,0.00,,,0.00,21,Wunderground v.1.15,2015-07-06 13:10:00,
2015-07-06 06:20:00,60.7,54.8,29.90,South,188,1.0,1.0,81,0.00,,,0.00,28,Wunderground v.1.15,2015-07-06 13:20:00,
2015-07-06 06:30:00,60.7,54.8,29.90,South,188,0.0,0.0,81,0.00,,,0.00,35,Wunderground v.1.15,2015-07-06 13:30:00,
2015-07-06 06:40:00,60.9,55.0,29.90,SSE,164,1.0,1.0,81,0.00,,,0.00,42,Wunderground v.1.15,2015-07-06 13:40:00,
2015-07-06 06:50:00,61.0,54.8,29.90,South,188,1.0,3.0,80,0.00,,,0.00,49,Wunderground v.1.15,2015-07-06 13:50:00,
2015-07-06 07:00:00,61.3,54.4,29.90,South,169,3.0,4.0,78,0.00,,,0.00,63,Wunderground v.1.15,2015-07-06 14:00:00,
2015-07-06 07:10:00,61.8,54.5,29.91,South,182,2.0,2.0,77,0.00,,,0.00,132,Wunderground v.1.15,2015-07-06 14:10:00,
2015-07-06 07:20:00,62.1,54.8,29.91,South,178,2.0,2.0,77,0.00,,,0.00,157,Wunderground v.1.15,2015-07-06 14:20:00,
2015-07-06 07:30:00,62.7,54.3,29.91,South,176,1.0,1.0,74,0.00,,,0.00,185,Wunderground v.1.15,2015-07-06 14:30:00,